Skip Page Navigation
NASA JPL Caltech
NASA Logo - Jet Propulsion Laboratory + View the NASA Portal
+ Center for Near-Earth Object Studies
JPL Home Earth Solar System Stars & Galaxies Technology
JPL Solar System Dynamics
BODIES ORBITS EPHEMERIDES TOOLS PHYSICAL DATA DISCOVERY FAQ SITE MAP
JPL Small-Body Database Browser
Search: [ help ]  
58059 (2690 P-L)
Classification: Main-belt Asteroid          SPK-ID: 2058059
Ephemeris | Orbit Diagram | Orbital Elements | Mission Design | Physical Parameters | Discovery Circumstances ]

[ show orbit diagram ]
Orbital Elements at Epoch 2459396.5 (2021-Jul-01.0) TDB
Reference: JPL 28 (heliocentric ecliptic J2000)
 Element Value Uncertainty (1-sigma)   Units 
e .2021188416676298 3.062e-08  
a 2.584786763687766 1.0365e-08 au
q 2.062352657053374 7.6302e-08 au
i 4.716801509250336 5.4087e-06 deg
node 25.15590611640619 5.0743e-05 deg
peri 73.38284631616479 5.4124e-05 deg
M 155.318623130401 1.711e-05 deg
tp 2458741.627822511169
(2019-Sep-15.12782251)
7.0999e-05 TDB
period 1517.873253988654
4.16
9.1301e-06
2.5e-08
d
yr
n .2371739531308001 1.4266e-09 deg/d
Q 3.107220870322159 1.246e-08 au
  Orbit Determination Parameters
   # obs. used (total)      985  
   data-arc span      21789 days (59.66 yr)  
   first obs. used      1960-09-24  
   last obs. used      2020-05-21  
   planetary ephem.      DE441  
   SB-pert. ephem.      SB441-N16  
   condition code      0  
   norm. resid. RMS      .50934  
   source      ORB  
   producer      Otto Matic  
   solution date      2021-Jul-08 22:09:55  

Additional Information
 Earth MOID = 1.08519 au 
 Jupiter MOID = 2.08545 au 
 T_jup = 3.389 
[ show covariance matrix ]

Ephemeris | Orbit Diagram | Orbital Elements | Mission Design | Physical Parameters | Discovery Circumstances ]

Physical Parameter Table
Parameter Symbol Value Units Sigma Reference Notes
absolute magnitude H 15.57   n/a E2021B10  

58059 (2690 P-L)          Discovered 1960-Sep-24 by van Houten, C. J., van Houten-Groeneveld, I., Gehrels, T. at Palomar
Reference: 20030318/Numbers.arcLast Updated: 2004-04-19
Ephemeris | Orbit Diagram | Orbital Elements | Mission Design | Physical Parameters | Discovery Circumstances ]
ABOUT SSD CREDITS/AWARDS PRIVACY/COPYRIGHT GLOSSARY LINKS
FirstGov 2021-Jul-26 18:14 UT
(server date/time)  
NASA Home Page
Site Manager:   Ryan S. Park
Webmaster  Alan B. Chamberlin